Regional Weather Roundup
Issued by NWS Sioux Falls, SD

Home | Current Version | Previous Version | Graphics & Text | Print | Product List | Glossary Off
Versions: 1 2 3 4 5 6 7 8 9 10 11 12 13 14 15 16 17 18 19 20 21 22 23 24 25 26 27 28 29 30 31 32 33 34 35 36 37 38 39 40 41 42 43 44 45 46 47 48 49 50

000
ASUS43 KFSD 280202
RWRFSD

WEATHER ROUNDUP FOR SE SOUTH DAKOTA/SW MINNESOTA/NW IOWA
NATIONAL WEATHER SERVICE SIOUX FALLS SD
800 PM CST TUE JAN 27 2015

NOTE: "FAIR" INDICATES FEW OR NO CLOUDS BELOW 12,000 FEET WITH NO
SIGNIFICANT WEATHER AND OR OBSTRUCTIONS TO VISIBILITY.


SDZ038>040-050-052>070-280300-
SOUTHEAST SOUTH DAKOTA

CITY           SKY/WX    TMP DP  RH WIND       PRES   REMARKS
CHAMBERLAIN    NOT AVBL
HURON          CLEAR     35  33  92 SE9       29.91R WCI  28
MADISON        FAIR      34  34 100 S10       29.96S WCI  26
MITCHELL       CLEAR     36  34  92 SE10      29.93S
SIOUX FALLS    CLEAR     36  33  89 SE8       29.98S
WINNER         FAIR      47  36  65 SE13      29.85F
YANKTON        CLEAR     37  32  81 SE9       29.98S
$$

MNZ071-072-080-081-089-090-097-098-280300-
SOUTHWEST MINNESOTA

CITY           SKY/WX    TMP DP  RH WIND       PRES   REMARKS
FAIRMONT       PTCLDY    32  27  80 SE13      30.08R WCI  22
JACKSON        CLEAR     34  32  93 SE12      30.05F WCI  25
LUVERNE        CLEAR     36  32  87 SE9       30.01S
MARSHALL       CLEAR     34  30  86 SE13      30.01F WCI  25
MONTEVIDEO     PTCLDY    34  34 100 S13G20    30.02F WCI  25
PIPESTONE      CLEAR     36  34  93 S13G20    29.97S
REDWOOD FALLS  CLOUDY    35  31  85 SE16      30.05S WCI  25
TRACY          CLEAR     35  33  92 S13       30.00F WCI  26
WINDOM         CLEAR     34  32  93 SE12      30.04S WCI  25
WORTHINGTON    CLEAR     34  30  86 SE12      30.02F WCI  25
$$

IAZ001>003-012>014-020>022-031-032-NEZ013-014-SDZ071-280300-
NORTHWEST IOWA

CITY           SKY/WX    TMP DP  RH WIND       PRES   REMARKS
ESTHERVILLE    CLEAR     32  31  96 SE16      30.06R WCI  21
SIOUX CITY     CLEAR     37  31  78 SE9       30.02S
SPENCER        FAIR      35  31  85 SE10      30.05F WCI  27
$$

ABBREVIATIONS USED IN REMARKS
   TC - TEMPERATURE IN CELSIUS
  WCI - WIND CHILL INDEX
   HX - HEAT INDEX
  VSB - VISIBILITY



USA.gov is the U.S. government's official web portal to all federal, state and local government web resources and services.